This demonstration page uses our WeatherBlox Daily Observations layout. Learn more.

Left ArrowRight Arrow

Hourly Observations for July 19, 2021

Temp ( °F °C ) Dew Point ( °F °C ) Humidity (%) Winds ( mph kmh ) Pressure ( in mb ) Visibility ( mi km ) Precip ( " mm )
12:15 am 00:15 Partly Cloudy 70 21.1 68 20 93 93 SE 8 13 30.14 1021 10 16 N/A
12:35 am 00:35 Mostly Cloudy 69 20.8 67 19.6 93 93 SE 7 11 30.14 1021 10 16 N/A
12:55 am 00:55 Partly Cloudy 69 20.7 67 19.2 91 91 SE 7 11 30.15 1021 10 16 N/A
1:15 am 01:15 Clear 69 20.4 66 19 92 92 SE 6 9 30.15 1021 10 16 N/A
1:35 am 01:35 Clear 68 20.1 66 18.7 92 92 SE 6 9 30.15 1021 10 16 N/A
1:55 am 01:55 Clear 67 19.7 65 18.4 92 92 SE 6 9 30.15 1021 10 16 N/A
2:15 am 02:15 Clear 67 19.6 65 18.1 91 91 SE 6 9 30.15 1021 10 16 N/A
2:35 am 02:35 Clear 67 19.3 64 17.8 91 91 SE 6 9 30.16 1021 10 16 N/A
2:55 am 02:55 Clear 66 19.1 64 17.7 92 92 SE 5 7 30.16 1021 10 16 N/A
3:15 am 03:15 Mostly Cloudy 66 18.8 64 17.7 93 93 SE 3 6 30.16 1021 7 11 N/A
3:35 am 03:35 Mostly Cloudy 65 18.5 64 17.5 94 94 SE 3 6 30.16 1021 7 11 N/A
3:55 am 03:55 Partly Cloudy 66 18.7 64 17.5 93 93 SE 6 9 30.16 1021 10 16 N/A
4:15 am 04:15 Clear 65 18.6 63 17.3 92 92 SSE 3 6 30.17 1022 10 16 N/A
4:35 am 04:35 Mostly Cloudy 65 18.5 63 17.3 93 93 N N/A 30.17 1022 7 11 N/A
4:55 am 04:55 Cloudy 65 18.5 63 17.3 93 93 SE 5 7 30.17 1022 10 16 N/A
5:15 am 05:15 Partly Cloudy 65 18.1 63 17 93 93 SSE 3 6 30.17 1022 10 16 N/A
5:35 am 05:35 Mostly Cloudy 65 18.2 63 17.1 93 93 SE 5 7 30.17 1022 10 16 N/A
5:55 am 05:55 Partly Cloudy 65 18.2 63 17 93 93 SSE 5 7 30.17 1022 10 16 N/A
6:15 am 06:15 Partly Cloudy 64 17.8 62 16.7 93 93 SE 3 6 30.17 1022 10 16 N/A
6:35 am 06:35 Partly Cloudy 64 17.6 62 16.7 95 95 N N/A 30.18 1022 7 11 N/A
6:55 am 06:55 Mostly Cloudy 64 18 63 17.2 95 95 N N/A 30.18 1022 7 11 N/A
7:15 am 07:15 Cloudy 65 18.5 63 17.4 93 93 N N/A 30.17 1022 10 16 N/A
7:35 am 07:35 Cloudy 66 19 64 17.5 91 91 SSE 3 6 30.17 1022 10 16 N/A
7:55 am 07:55 Cloudy 67 19.4 64 17.7 90 90 N N/A 30.17 1022 10 16 N/A
8:15 am 08:15 Cloudy 67 19.6 64 17.7 89 89 ESE 3 6 30.16 1021 10 16 N/A
8:35 am 08:35 Partly Cloudy 68 20 64 17.9 88 88 E 5 7 30.17 1022 7 11 N/A
8:55 am 08:55 Sunny 69 20.3 64 18 87 87 SE 5 7 30.16 1021 7 11 N/A
9:15 am 09:15 Sunny 70 21.1 65 18.6 86 86 SSE 3 6 30.16 1021 10 16 N/A
9:35 am 09:35 Mostly Cloudy 71 21.5 65 18.5 83 83 SE 6 9 30.16 1021 10 16 N/A
9:55 am 09:55 Cloudy 72 22 65 18.6 81 81 SSE 3 6 30.15 1021 10 16 N/A
10:15 am 10:15 Partly Cloudy 72 22.4 66 18.8 80 80 SE 6 9 30.14 1021 10 16 N/A
10:35 am 10:35 Sunny 74 23.1 66 18.9 77 77 SSE 6 9 30.13 1020 10 16 N/A
10:55 am 10:55 Sunny 74 23.6 67 19.2 76 76 SSE 8 13 30.13 1020 10 16 N/A
11:15 am 11:15 Partly Cloudy 75 24.1 67 19.3 75 75 E 8 13 30.13 1020 10 16 N/A
11:35 am 11:35 Mostly Cloudy 76 24.3 67 19.6 75 75 SE 8 13 30.12 1020 10 16 N/A
11:55 am 11:55 Mostly Cloudy 76 24.6 67 19.7 74 74 SSE 8 13 30.12 1020 10 16 N/A
12:15 pm 12:15 Mostly Cloudy 78 25.4 68 19.8 71 71 ENE 8 13 30.12 1020 10 16 N/A
12:35 pm 12:35 Mostly Cloudy 77 25.2 67 19.5 71 71 SSE 8 13 30.12 1020 10 16 N/A
12:55 pm 12:55 Mostly Cloudy 79 26 67 19.7 68 68 E 7 11 30.10 1019 10 16 N/A
1:15 pm 13:15 Mostly Cloudy 78 25.6 67 19.7 70 70 SE 8 13 30.10 1019 10 16 N/A
1:35 pm 13:35 Cloudy 78 25.7 67 19.5 69 69 S 6 9 30.10 1019 10 16 N/A
1:55 pm 13:55 Cloudy 78 25.6 67 19.6 70 70 SE 5 7 30.10 1019 10 16 N/A
2:15 pm 14:15 Cloudy 78 25.6 66 19.1 67 67 SE 6 9 30.10 1019 10 16 N/A
2:35 pm 14:35 Cloudy 78 25.7 67 19.4 68 68 ESE 5 7 30.10 1019 10 16 N/A
2:55 pm 14:55 Cloudy 78 25.7 67 19.5 69 69 SE 7 11 30.10 1019 10 16 N/A
3:15 pm 15:15 Partly Cloudy 80 26.8 68 19.8 66 66 NE 7 11 30.08 1019 10 16 N/A
3:35 pm 15:35 Partly Cloudy 81 27 67 19.6 64 64 SE 7 11 30.08 1019 10 16 N/A
3:55 pm 15:55 Partly Cloudy 81 27.1 67 19.5 63 63 SE 8 13 30.07 1018 10 16 N/A
4:15 pm 16:15 Partly Cloudy 81 27 67 19.5 64 64 SE 8 13 30.07 1018 10 16 N/A
4:35 pm 16:35 Partly Cloudy 81 27.1 67 19.7 64 64 ESE 6 9 30.06 1018 10 16 N/A
4:55 pm 16:55 Partly Cloudy 81 27.3 66 18.9 60 60 ESE 7 11 30.06 1018 10 16 N/A
5:15 pm 17:15 Mostly Cloudy 81 27.3 67 19.4 62 62 SSE 9 15 30.06 1018 10 16 N/A
5:35 pm 17:35 Partly Cloudy 81 27.2 66 19 61 61 SE 8 13 30.06 1018 10 16 N/A
5:55 pm 17:55 Partly Cloudy 80 26.7 66 18.8 62 62 ESE 8 13 30.06 1018 10 16 N/A
6:15 pm 18:15 Partly Cloudy 81 27.1 67 19.2 62 62 SE 8 13 30.05 1018 10 16 N/A
6:35 pm 18:35 Partly Cloudy 81 27 66 18.9 61 61 SE 7 11 30.05 1018 10 16 N/A
6:55 pm 18:55 Sunny 80 26.6 66 18.9 63 63 ESE 10 17 30.06 1018 10 16 N/A
7:15 pm 19:15 Sunny 79 26.3 65 18.6 63 63 SE 9 15 30.06 1018 10 16 N/A
7:35 pm 19:35 Sunny 79 26 65 18.3 63 63 SE 7 11 30.07 1018 10 16 N/A
7:55 pm 19:55 Sunny 78 25.4 65 18.6 66 66 ESE 9 15 30.09 1019 10 16 N/A
8:15 pm 20:15 Sunny 77 24.9 65 18.6 68 68 ESE 6 9 30.09 1019 10 16 N/A
8:35 pm 20:35 Sunny 76 24.2 65 18.5 71 71 ESE 8 13 30.10 1019 10 16 N/A
8:55 pm 20:55 Sunny 74 23.5 65 18.3 73 73 ESE 7 11 30.10 1019 10 16 N/A
9:15 pm 21:15 Clear 74 23.1 65 18.1 74 74 ESE 9 15 30.10 1019 10 16 N/A
9:35 pm 21:35 Clear 73 22.5 64 17.9 75 75 ESE 7 11 30.12 1020 10 16 N/A
9:55 pm 21:55 Clear 72 22.1 64 18 78 78 ESE 8 13 30.11 1020 10 16 N/A
10:15 pm 22:15 Clear 71 21.5 64 17.5 78 78 SE 8 13 30.13 1020 10 16 N/A
10:35 pm 22:35 Clear 70 21.1 63 17.2 79 79 SE 5 7 30.13 1020 10 16 N/A
10:55 pm 22:55 Clear 69 20.5 63 17.1 81 81 ESE 7 11 30.14 1021 10 16 N/A
11:15 pm 23:15 Clear 69 20.5 63 17 80 80 ESE 5 7 30.14 1021 10 16 N/A
11:35 pm 23:35 Clear 68 19.9 63 17 83 83 SE 6 9 30.13 1020 10 16 N/A
11:55 pm 23:55 Clear 65 18.6 62 16.7 89 89 SSE 3 6 30.15 1021 10 16 N/A

Powered by AerisWeather